Location: Kott?ru
(16.6209°N, 80.6208°E)
Time: 21:03:41
(UTC+00:00)

N. Korean satellite - Visible Passes

Search period start: 30 November 2020 00:00
Search period end: 10 December 2020 00:00
Orbit: 453 x 504 km, 97.2° (Epoch: 29 November)

Date Brightness Start Highest point End Pass type
(mag) Time Alt. Az. Time Alt. Az. Time Alt. Az.
30 Nov 8.0 23:33:32 10° NNE 23:36:59 40° E 23:40:28 10° S visible
01 Dec 9.8 23:08:22 10° ENE 23:10:41 16° E 23:13:00 10° SE visible
03 Dec 7.1 00:14:08 10° N 00:17:34 39° WNW 00:21:02 10° SSW visible
03 Dec 6.8 23:47:39 10° NNE 23:51:20 73° ESE 23:54:59 10° S visible
04 Dec 8.9 23:21:52 10° NE 23:25:01 26° E 23:28:08 10° SSE visible
05 Dec 10.2 22:57:54 10° E 22:58:38 10° E 22:59:23 10° ESE visible
06 Dec 9.9 12:25:32 10° SW 12:27:15 13° W 12:28:59 10° WNW visible
07 Dec 6.6 00:01:55 10° N 00:05:33 63° WNW 00:09:11 10° SSW visible
07 Dec 7.8 23:35:42 10° NNE 23:39:14 45° E 23:42:46 10° S visible
08 Dec 9.6 23:10:21 10° NE 23:12:52 17° E 23:15:23 10° SE visible
